Hauptseite
METAR-TAF:

METAR-TAF

Flughäfen :

Bern, Schweiz

Flughafen Bern-Belp

Breite: 46-55N, Länge: 007-30E, Höhe: 505 m

Beobachtung

Neuester Wetterbericht von vor 23 Minuten, um 03:20 UTC
Wind 1 kt aus unterschiedlichen Richtungen
Temperatur 9°C
Luftfeuchtigkeit 87%
Luftdruck 1022 hPa
Sichtweite 10 km oder mehr

METAR: LSZB 210320Z AUTO VRB01KT 9999 NCD 09/07 Q1022

Zeit: 05:43 (03:43 UTC)

Prognose

Neuester Wetterbericht von vor 1 Stunde und 18 Minuten, um 02:25 UTC
Gültige Prognose vom 21 um 03 UTC bis 21 um 12 UTC
Wind 3 kt aus unterschiedlichen Richtungen
Sichtweite 10 km oder mehr
keine Wolken unter 1500 m und keine Kumulonimbus oder Gewitterwolken

TAF: LSZB 210225Z 2103/2112 VRB03KT CAVOK

Wetterbeobachtungen und Prognosen von mehr als 4000 Flughäfen (METAR und TAF Bericht).

Die verfügbaren Stationen werden durch gelbe und rote Markierungen auf der Karte dargestellt.

Führen Sie die Maus auf sie, um den Namen der Station zu sehen.

Darauf klicken, um die Beobachtung von Wetterbeobachtungen und Prognosen zu sehen.

Um die Karte zu ändern : klicken Sie auf den grünen Tasten mit einem schwarzen Kreuz Zum Vergrößern, auf den grünen Button mit einem Gedankenstrich zu verkleinern, oder auf die grünen Pfeile für benachbarte Karten.


METAR-TAF: